Location: Oroua River
(40.4333°S, 175.4333°E)
Time: 14:15:03
(UTC+00:00)

Cosmos 2297 - Pass Details

Date: 03 February 2023
Orbit: 835 x 858 km, 71.0° (Epoch: 30 March)

Event Time Altitude Azimuth Distance (km) Brightness Sun altitude
Exits shadow 13:24:42 50° 211° (SSW) 1,080 4.4 -31.8°
Drops below altitude 10° 13:29:27 10° 165° (SSE) 2,483 7.0 -31.5°
Sets 13:31:59 0° 160° (SSE) 3,423 8.0 -31.4°
